Home > Weather > Syktyvkar > Past weeks

Flag for Russia Weather for the Past 2 Weeks in Syktyvkar, Russia

Now
59 °F

Sunny.


Feels Like: 59 °F
Forecast: 37 / 61 °F
Wind: 1 mph from East

Location: Syktyvkar Airport

Current Time: Apr 29, 2016 at 11:58:48 AM

Latest Report: Apr 29, 2016 at 11:00 AM


Visibility: 10 mi

Pressure: 30.57 "Hg

Humidity: 23%

Dew Point: 21 °F

Location of SyktyvkarLocation

Historic Weather in Syktyvkar — Graph

°F

Syktyvkar Temperature Yesterday

Maximum temperature yesterday: 57 °F (at 1:00 PM)
Minimum temperature yesterday: 34 °F (at 3:30 AM)
Average temperature yesterday: 47 °F

High & Low Weather Summary for the Past Weeks

 TemperatureHumidityPressure
High57 °F (Apr 26, 3:00 PM)100% (Apr 15, 6:30 PM)30.57 "Hg (Apr 15, 6:30 PM)
Low30 °F (Apr 18, 3:00 AM)20% (Apr 28, 4:30 PM)29.18 "Hg (Apr 22, 10:00 AM)
Average43 °F68%29.91 "Hg
* Reported Apr 14 10:00 AM — Apr 29 10:30 AM, Syktyvkar, Weather by CustomWeather, © 2016

Note: Actual official high and low records may vary slightly from our data, if they occured in-between our weather recording intervals... More about our weather records

Advertising

Syktyvkar Weather History for the Previous 24 Hours

Scroll right to see more
 ConditionsComfort  
Time TempWeatherWind HumidityBarometerVisibility
10:30 AM
Fri, Apr 29
57 °FSunny.1 mph21%30.57 "Hg10 mi
10:00 AM57 °FPassing clouds.3 mph23%30.57 "HgN/A
9:30 AM55 °FSunny.3 mph28%30.57 "Hg10 mi
9:00 AM54 °FSunny.3 mph28%30.57 "Hg10 mi
8:00 AM52 °FSunny.1 mph35%30.57 "Hg10 mi
7:00 AM48 °FSunny.No wind50%30.57 "Hg10 mi
6:00 AM43 °FSunny.No wind61%30.57 "Hg10 mi
5:30 AM39 °FClear.No wind70%30.57 "Hg6 mi
5:00 AM36 °FClear.No wind87%30.57 "Hg6 mi
4:30 AM34 °FClear.1 mph87%30.57 "Hg5 mi
4:00 AM34 °FFog.1 mph87%30.57 "Hg3 mi
3:00 AM34 °FFog.3 mph87%30.57 "Hg3 mi
2:30 AM34 °FFog.1 mph87%30.57 "Hg3 mi
2:00 AM34 °FFog.1 mph87%30.54 "Hg3 mi
1:00 AM36 °FClear.1 mph81%30.54 "Hg4 mi
12:00 AM37 °FClear.1 mph70%30.51 "Hg5 mi
11:30 PM
Thu, Apr 28
37 °FClear.1 mph70%30.51 "Hg10 mi
11:00 PM39 °FClear.1 mph61%30.51 "Hg6 mi
10:30 PM41 °FClear.1 mph53%30.51 "Hg4 mi
10:00 PM43 °FClear.3 mph42%30.51 "Hg5 mi
9:30 PM45 °FClear.3 mph37%30.51 "Hg6 mi
9:00 PM46 °FClear.3 mph34%30.51 "Hg6 mi
8:30 PM46 °FClear.3 mph37%30.48 "Hg4 mi
8:00 PM50 °FClear.3 mph30%30.48 "Hg6 mi
7:30 PM52 °FClear.1 mph28%30.48 "Hg6 mi
7:00 PM54 °FSunny.3 mph28%30.48 "Hg10 mi
6:30 PM55 °FSunny.6 mph24%30.48 "Hg10 mi
6:00 PM57 °FSunny.6 mph21%30.48 "Hg10 mi
5:30 PM57 °FSunny.8 mph20%30.48 "Hg10 mi
5:00 PM57 °FSunny.8 mph23%30.48 "Hg10 mi
4:30 PM57 °FSunny.10 mph20%30.48 "Hg10 mi
4:00 PM57 °FSunny.10 mph25%30.48 "Hg10 mi
3:00 PM57 °FSunny.10 mph23%30.51 "Hg10 mi
2:00 PM57 °FSunny.13 mph25%30.51 "Hg10 mi
1:30 PM57 °FSunny.10 mph27%30.51 "Hg10 mi
1:00 PM57 °FPassing clouds.10 mph27%30.54 "HgN/A
12:00 PM55 °FSunny.8 mph26%30.54 "Hg10 mi
11:00 AM55 °FPassing clouds.10 mph28%30.57 "HgN/A
Weather by CustomWeather, © 2016

See weather overviewHow to use our weather pages